Location: Brachbach
(49.1847°N, 9.7240°E)
Time: 04:41:29
(UTC+00:00)

STARS - Pass Details

Date: 19 March 2026
Orbit: 575 x 588 km, 98.2° (Epoch: 15 April)

Event Time Altitude Azimuth Distance (km) Brightness Sun altitude
Rises 02:37:03 0° 3° (N) 2,801 ? -27.0°
Reaches altitude 10° 02:39:33 10° 348° (NNW) 1,897 ? -26.6°
Enters shadow 02:40:32 15° 338° (NNW) 1,604 ? -26.5°
